Tracking 30995 objects as of 7-Jul-2025
HD Live streaming from Space Station
objects crossing your sky now

STARLINK-32180

Track STARLINK-32180 now!
10-day predictions
STARLINK-32180 is classified as:


NORAD ID: 60374
Int'l Code: 2024-138V
Perigee: 481.6 km
Apogee: 483.2 km
Inclination: 53.2 °
Period: 94.1 minutes
Semi major axis: 6853 km
RCS: Unknown
Launch date: August 4, 2024
Source: United States (US)
Launch site: AIR FORCE WESTERN TEST RANGE (AFWTR)
Your satellite tracking list
Your tracking list is empty




NASA's NSSDC Master Catalog

Two Line Element Set (TLE):
1 60374U 24138V   25187.50165452 -.00000513  00000-0 -51953-5 0  9998
2 60374  53.1609  13.2248 0001179  89.5710 270.5425 15.30188025 52931
Source of the keplerian elements: AFSPC